| time (UTC) | temp F | wind direction | speed MPH | gust MPH | rain 1hr in | rain 24hr in | rain mn in | humidity % | barometer mb |
| 20260507145205 | 62 | 348 | 2.0 | 9.0 | 0.00 | 0.12 | 0.00 | 68 | 1019.7 |
| 20260507145109 | 62 | 29 | 4.0 | 10.0 | 0.00 | 0.12 | 0.00 | 67 | 1019.6 |
| 20260507145058 | 62 | 24 | 4.0 | 10.0 | 0.00 | 0.12 | 0.00 | 71 | 1019.8 |
| 20260507144050 | 61 | 27 | 4.0 | 10.0 | 0.00 | 0.12 | 0.00 | 69 | 1019.8 |
| 20260507143041 | 60 | 14 | 4.0 | 7.0 | 0.00 | 0.12 | 0.00 | 71 | 1019.7 |
| 20260507142538 | 60 | 7 | 3.0 | 9.0 | 0.00 | 0.12 | 0.00 | 73 | 1019.7 |
| 20260507142021 | 59 | 39 | 3.0 | 9.0 | 0.00 | 0.12 | 0.00 | 73 | 1019.7 |
| 20260507141505 | 60 | 10 | 3.0 | 7.0 | 0.00 | 0.12 | 0.00 | 74 | 1019.8 |
| 20260507141452 | 59 | 34 | 2.0 | 7.0 | 0.00 | 0.12 | 0.00 | 75 | 1019.8 |
| 20260507140444 | 59 | 46 | 3.0 | 7.0 | 0.00 | 0.12 | 0.00 | 76 | 1019.8 |
| 20260507135931 | 58 | 1 | 3.0 | 7.0 | 0.00 | 0.12 | 0.00 | 76 | 1019.8 |
| 20260507135424 | 58 | 22 | 2.0 | 7.0 | 0.00 | 0.12 | 0.00 | 77 | 1019.8 |
| 20260507134917 | 58 | 35 | 1.0 | 5.0 | 0.00 | 0.12 | 0.00 | 79 | 1019.9 |
| 20260507134411 | 57 | 321 | 2.0 | 7.0 | 0.00 | 0.12 | 0.00 | 80 | 1020.0 |
| 20260507133907 | 57 | 346 | 2.0 | 7.0 | 0.00 | 0.12 | 0.00 | 81 | 1020.0 |
| 20260507133406 | 56 | 16 | 1.0 | 4.0 | 0.00 | 0.12 | 0.00 | 82 | 1020.0 |
| 20260507132900 | 56 | 10 | 0.0 | 0.0 | 0.00 | 0.12 | 0.00 | 83 | 1020.2 |
| 20260507132359 | 55 | 16 | 0.0 | 0.0 | 0.00 | 0.12 | 0.00 | 84 | 1020.1 |
| 20260507131852 | 54 | 16 | 0.0 | 0.0 | 0.00 | 0.12 | 0.00 | 85 | 1020.2 |
| 20260507131346 | 54 | 16 | 0.0 | 0.0 | 0.00 | 0.12 | 0.00 | 85 | 1020.1 |
| 20260507130839 | 54 | 16 | 0.0 | 0.0 | 0.00 | 0.12 | 0.00 | 85 | 1020.2 |
| 20260507130333 | 53 | 18 | 0.0 | 0.0 | 0.00 | 0.12 | 0.00 | 85 | 1020.1 |
| 20260507125828 | 53 | 18 | 0.0 | 0.0 | 0.00 | 0.12 | 0.00 | 85 | 1020.1 |
| 20260507125324 | 53 | 19 | 0.0 | 0.0 | 0.00 | 0.12 | 0.00 | 85 | 1020.1 |
| 20260507124824 | 53 | 20 | 0.0 | 0.0 | 0.00 | 0.12 | 0.00 | 85 | 1020.1 |
| 20260507124322 | 52 | 18 | 0.0 | 0.0 | 0.00 | 0.12 | 0.00 | 85 | 1020.0 |
| 20260507124313 | 52 | 27 | 0.0 | 0.0 | 0.00 | 0.12 | 0.00 | 84 | 1020.0 |
| 20260507123307 | 52 | 31 | 0.0 | 0.0 | 0.00 | 0.12 | 0.00 | 84 | 1019.9 |
| 20260507122800 | 52 | 16 | 0.0 | 0.0 | 0.00 | 0.12 | 0.00 | 84 | 1019.7 |
| 20260507122250 | 52 | 267 | 0.0 | 0.0 | 0.00 | 0.12 | 0.00 | 84 | 1019.7 |
| 20260507121745 | 52 | 20 | 0.0 | 0.0 | 0.00 | 0.12 | 0.00 | 83 | 1019.7 |
| 20260507121236 | 52 | 19 | 0.0 | 0.0 | 0.00 | 0.12 | 0.00 | 83 | 1019.8 |
| 20260507120723 | 52 | 21 | 0.0 | 0.0 | 0.00 | 0.12 | 0.00 | 83 | 1019.9 |
| 20260507120216 | 52 | 13 | 0.0 | 0.0 | 0.00 | 0.12 | 0.00 | 83 | 1019.7 |
| 20260507115708 | 52 | 14 | 0.0 | 0.0 | 0.00 | 0.12 | 0.00 | 83 | 1019.7 |
| 20260507115203 | 52 | 16 | 0.0 | 0.0 | 0.00 | 0.12 | 0.00 | 83 | 1020.0 |
| 20260507114652 | 52 | 18 | 0.0 | 0.0 | 0.00 | 0.12 | 0.00 | 82 | 1020.0 |
| 20260507114140 | 52 | 18 | 0.0 | 0.0 | 0.00 | 0.12 | 0.00 | 82 | 1019.8 |
| 20260507114132 | 52 | 17 | 0.0 | 0.0 | 0.00 | 0.12 | 0.00 | 82 | 1019.7 |
| 20260507113121 | 52 | 20 | 0.0 | 2.0 | 0.00 | 0.12 | 0.00 | 82 | 1019.5 |
| 20260507113111 | 52 | 16 | 0.0 | 2.0 | 0.00 | 0.12 | 0.00 | 82 | 1019.4 |
| 20260507112100 | 52 | 18 | 0.0 | 2.0 | 0.00 | 0.12 | 0.00 | 82 | 1019.3 |
| 20260507111550 | 52 | 17 | 0.0 | 2.0 | 0.00 | 0.12 | 0.00 | 82 | 1019.2 |
| 20260507111041 | 52 | 18 | 0.0 | 1.0 | 0.00 | 0.12 | 0.00 | 82 | 1019.2 |
| 20260507110530 | 52 | 18 | 0.0 | 3.0 | 0.00 | 0.12 | 0.00 | 82 | 1019.2 |
| 20260507110021 | 52 | 16 | 1.0 | 3.0 | 0.00 | 0.12 | 0.00 | 82 | 1019.2 |
| 20260507105510 | 52 | 15 | 1.0 | 4.0 | 0.00 | 0.12 | 0.00 | 81 | 1019.1 |
| 20260507105000 | 53 | 22 | 2.0 | 4.0 | 0.00 | 0.12 | 0.00 | 81 | 1019.1 |
| 20260507104450 | 53 | 37 | 1.0 | 4.0 | 0.00 | 0.12 | 0.00 | 81 | 1019.0 |
| 20260507103940 | 53 | 44 | 1.0 | 3.0 | 0.00 | 0.12 | 0.00 | 81 | 1018.9 |
| 20260507103422 | 53 | 42 | 0.0 | 2.0 | 0.00 | 0.12 | 0.00 | 81 | 1018.7 |
| 20260507102912 | 53 | 40 | 0.0 | 2.0 | 0.00 | 0.12 | 0.00 | 81 | 1018.5 |
| 20260507102402 | 53 | 39 | 0.0 | 0.0 | 0.00 | 0.12 | 0.00 | 81 | 1018.5 |
| 20260507101852 | 53 | 38 | 0.0 | 0.0 | 0.00 | 0.12 | 0.00 | 81 | 1018.4 |
| 20260507101342 | 53 | 39 | 0.0 | 0.0 | 0.00 | 0.12 | 0.00 | 81 | 1018.4 |
| 20260507100832 | 53 | 39 | 0.0 | 3.0 | 0.00 | 0.12 | 0.00 | 81 | 1018.2 |
| 20260507100322 | 53 | 41 | 1.0 | 3.0 | 0.00 | 0.12 | 0.00 | 81 | 1018.2 |
| 20260507100314 | 53 | 44 | 2.0 | 3.0 | 0.00 | 0.12 | 0.00 | 81 | 1018.1 |
| 20260507095803 | 54 | 45 | 2.0 | 4.0 | 0.00 | 0.12 | 0.00 | 81 | 1017.9 |
| 20260507095252 | 54 | 45 | 2.0 | 3.0 | 0.00 | 0.12 | 0.00 | 81 | 1017.9 |
| 20260507094242 | 54 | 47 | 2.0 | 4.0 | 0.00 | 0.12 | 0.00 | 81 | 1017.7 |
| 20260507093732 | 54 | 45 | 2.0 | 4.0 | 0.00 | 0.12 | 0.00 | 80 | 1017.8 |
| 20260507093222 | 54 | 44 | 2.0 | 4.0 | 0.00 | 0.12 | 0.00 | 80 | 1017.7 |
| 20260507092713 | 54 | 49 | 1.0 | 4.0 | 0.00 | 0.12 | 0.00 | 80 | 1017.6 |
| 20260507092202 | 54 | 51 | 1.0 | 4.0 | 0.00 | 0.12 | 0.00 | 80 | 1017.6 |
| 20260507091738 | 54 | 41 | 2.0 | 5.0 | 0.00 | 0.12 | 0.00 | 80 | 1017.7 |
| 20260507091237 | 54 | 41 | 1.0 | 5.0 | 0.00 | 0.12 | 0.00 | 80 | 1017.5 |
| 20260507090120 | 54 | 37 | 2.0 | 5.0 | 0.00 | 0.12 | 0.00 | 80 | 1017.4 |
| 20260507085610 | 54 | 54 | 2.0 | 8.0 | 0.00 | 0.12 | 0.00 | 80 | 1017.4 |
| 20260507085059 | 54 | 54 | 4.0 | 8.0 | 0.00 | 0.12 | 0.00 | 80 | 1017.3 |
| 20260507084551 | 55 | 36 | 4.0 | 10.0 | 0.00 | 0.12 | 0.00 | 80 | 1017.1 |
| 20260507084541 | 55 | 47 | 4.0 | 10.0 | 0.00 | 0.12 | 0.00 | 80 | 1017.2 |
| 20260507083530 | 55 | 47 | 4.0 | 8.0 | 0.00 | 0.12 | 0.00 | 80 | 1017.2 |
| 20260507083020 | 55 | 24 | 4.0 | 8.0 | 0.00 | 0.12 | 0.00 | 79 | 1017.3 |
| 20260507083012 | 55 | 44 | 3.0 | 7.0 | 0.00 | 0.12 | 0.00 | 79 | 1017.4 |
| 20260507082001 | 55 | 33 | 3.0 | 7.0 | 0.00 | 0.12 | 0.00 | 79 | 1017.4 |
| 20260507081450 | 55 | 28 | 2.0 | 6.0 | 0.00 | 0.12 | 0.00 | 79 | 1017.5 |
| 20260507081441 | 55 | 29 | 3.0 | 6.0 | 0.00 | 0.12 | 0.00 | 79 | 1017.5 |
| 20260507080430 | 56 | 26 | 3.0 | 7.0 | 0.00 | 0.12 | 0.00 | 78 | 1017.4 |
| 20260507075920 | 56 | 23 | 2.0 | 7.0 | 0.00 | 0.12 | 0.00 | 78 | 1017.4 |
| 20260507075402 | 56 | 21 | 3.0 | 7.0 | 0.00 | 0.12 | 0.00 | 78 | 1017.3 |
| 20260507074852 | 56 | 24 | 3.0 | 8.0 | 0.00 | 0.12 | 0.00 | 78 | 1017.3 |
| 20260507074342 | 56 | 22 | 3.0 | 6.0 | 0.00 | 0.12 | 0.00 | 78 | 1017.3 |
| 20260507073831 | 56 | 50 | 4.0 | 8.0 | 0.00 | 0.12 | 0.00 | 77 | 1017.2 |
| 20260507073322 | 56 | 31 | 4.0 | 9.0 | 0.00 | 0.12 | 0.00 | 77 | 1017.1 |
| 20260507072812 | 56 | 29 | 3.0 | 9.0 | 0.00 | 0.12 | 0.00 | 77 | 1017.0 |
| 20260507072309 | 56 | 50 | 3.0 | 9.0 | 0.00 | 0.12 | 0.00 | 77 | 1016.9 |
| 20260507071800 | 56 | 47 | 3.0 | 9.0 | 0.00 | 0.12 | 0.00 | 77 | 1016.6 |
| 20260507071259 | 56 | 46 | 4.0 | 10.0 | 0.00 | 0.12 | 0.00 | 77 | 1016.6 |
| 20260507071255 | 56 | 51 | 4.0 | 10.0 | 0.00 | 0.12 | 0.00 | 77 | 1016.6 |
| 20260507070256 | 56 | 42 | 4.0 | 12.0 | 0.00 | 0.12 | 0.00 | 77 | 1016.6 |
| 20260507065755 | 56 | 55 | 4.0 | 12.0 | 0.00 | 0.12 | 0.00 | 77 | 1016.5 |
| 20260507065256 | 56 | 73 | 4.0 | 11.0 | 0.00 | 0.12 | 0.00 | 78 | 1016.5 |
| 20260507065251 | 56 | 34 | 2.0 | 11.0 | 0.00 | 0.12 | 0.00 | 78 | 1016.6 |
| 20260507064902 | 57 | 16 | 2.0 | 11.0 | 0.00 | 0.12 | 0.00 | 78 | 1016.6 |
| 20260507063750 | 57 | 33 | 1.0 | 4.0 | 0.00 | 0.12 | 0.00 | 78 | 1016.6 |
| 20260507063741 | 57 | 39 | 1.0 | 4.0 | 0.00 | 0.12 | 0.00 | 77 | 1016.8 |
| 20260507062722 | 57 | 41 | 2.0 | 7.0 | 0.00 | 0.12 | 0.00 | 77 | 1016.7 |
| 20260507062218 | 57 | 72 | 2.0 | 7.0 | 0.00 | 0.12 | 0.00 | 77 | 1016.7 |
| 20260507061708 | 57 | 62 | 3.0 | 9.0 | 0.00 | 0.12 | 0.00 | 77 | 1016.6 |
| 20260507061157 | 57 | 37 | 3.0 | 10.0 | 0.00 | 0.12 | 0.00 | 77 | 1016.6 |
| 20260507060648 | 58 | 45 | 2.0 | 10.0 | 0.00 | 0.12 | 0.00 | 77 | 1016.5 |
| 20260507060130 | 58 | 45 | 3.0 | 12.0 | 0.00 | 0.12 | 0.00 | 77 | 1016.4 |
| 20260507055621 | 58 | 65 | 3.0 | 12.0 | 0.00 | 0.12 | 0.00 | 76 | 1016.5 |
| 20260507055112 | 58 | 68 | 3.0 | 11.0 | 0.00 | 0.12 | 0.00 | 76 | 1016.5 |
| 20260507054558 | 58 | 72 | 2.0 | 11.0 | 0.00 | 0.12 | 0.00 | 75 | 1016.6 |
| 20260507054048 | 58 | 34 | 2.0 | 6.0 | 0.00 | 0.12 | 0.00 | 75 | 1016.5 |
| 20260507053541 | 58 | 78 | 3.0 | 9.0 | 0.00 | 0.12 | 0.00 | 75 | 1016.5 |
| 20260507053034 | 58 | 29 | 3.0 | 9.0 | 0.00 | 0.12 | 0.00 | 75 | 1016.5 |
| 20260507053022 | 58 | 39 | 3.0 | 12.0 | 0.00 | 0.12 | 0.00 | 74 | 1016.6 |
| 20260507052626 | 58 | 47 | 4.0 | 12.0 | 0.00 | 0.12 | 0.00 | 74 | 1016.5 |
| 20260507051513 | 58 | 83 | 3.0 | 10.0 | 0.00 | 0.12 | 0.00 | 74 | 1016.6 |
| 20260507051505 | 58 | 42 | 4.0 | 11.0 | 0.00 | 0.12 | 0.00 | 74 | 1016.6 |
| 20260507050501 | 58 | 53 | 4.0 | 11.0 | 0.00 | 0.12 | 0.00 | 74 | 1016.5 |
| 20260507045957 | 58 | 65 | 3.0 | 11.0 | 0.00 | 0.12 | 0.12 | 74 | 1016.4 |
| 20260507045448 | 58 | 47 | 3.0 | 7.0 | 0.00 | 0.12 | 0.12 | 74 | 1016.4 |
| 20260507044936 | 58 | 55 | 3.0 | 11.0 | 0.00 | 0.12 | 0.12 | 74 | 1016.6 |
| 20260507044927 | 58 | 45 | 5.0 | 11.0 | 0.00 | 0.12 | 0.12 | 74 | 1016.5 |
| 20260507043916 | 58 | 43 | 6.0 | 13.0 | 0.00 | 0.12 | 0.12 | 73 | 1016.6 |
| 20260507043406 | 59 | 40 | 5.0 | 13.0 | 0.00 | 0.12 | 0.12 | 74 | 1016.6 |
| 20260507042856 | 59 | 53 | 4.0 | 11.0 | 0.00 | 0.12 | 0.12 | 73 | 1016.7 |
| 20260507042347 | 59 | 80 | 5.0 | 12.0 | 0.00 | 0.12 | 0.12 | 73 | 1016.8 |
| 20260507042337 | 59 | 57 | 5.0 | 11.0 | 0.00 | 0.12 | 0.12 | 74 | 1016.8 |
| 20260507041828 | 59 | 85 | 5.0 | 11.0 | 0.00 | 0.12 | 0.12 | 74 | 1016.8 |
| 20260507040818 | 59 | 33 | 4.0 | 10.0 | 0.00 | 0.12 | 0.12 | 74 | 1016.8 |
| 20260507040814 | 59 | 51 | 4.0 | 11.0 | 0.00 | 0.12 | 0.12 | 74 | 1016.7 |
| 20260507035814 | 59 | 64 | 5.0 | 11.0 | 0.00 | 0.12 | 0.12 | 75 | 1016.9 |
| 20260507035315 | 59 | 36 | 6.0 | 11.0 | 0.00 | 0.12 | 0.12 | 75 | 1017.0 |
| 20260507034814 | 59 | 41 | 4.0 | 10.0 | 0.00 | 0.12 | 0.12 | 76 | 1016.9 |
| 20260507034302 | 59 | 39 | 4.0 | 10.0 | 0.00 | 0.12 | 0.12 | 77 | 1016.9 |
| 20260507034243 | 59 | 58 | 5.0 | 12.0 | 0.00 | 0.12 | 0.12 | 77 | 1016.8 |
| 20260507033847 | 59 | 42 | 6.0 | 12.0 | 0.00 | 0.12 | 0.12 | 77 | 1016.9 |
| 20260507032730 | 59 | 63 | 4.0 | 9.0 | 0.00 | 0.12 | 0.12 | 78 | 1016.9 |
| 20260507032220 | 59 | 44 | 3.0 | 8.0 | 0.00 | 0.12 | 0.12 | 78 | 1016.8 |
| 20260507031702 | 59 | 51 | 3.0 | 11.0 | 0.00 | 0.12 | 0.12 | 78 | 1016.7 |
| 20260507031152 | 59 | 43 | 4.0 | 11.0 | 0.00 | 0.12 | 0.12 | 78 | 1016.5 |
| 20260507030642 | 59 | 39 | 4.0 | 10.0 | 0.00 | 0.12 | 0.12 | 78 | 1016.6 |
| 20260507030124 | 59 | 59 | 3.0 | 9.0 | 0.00 | 0.12 | 0.12 | 78 | 1016.6 |
| 20260507030115 | 59 | 49 | 3.0 | 10.0 | 0.00 | 0.12 | 0.12 | 78 | 1016.5 |
| 20260507025104 | 59 | 48 | 3.0 | 10.0 | 0.00 | 0.12 | 0.12 | 78 | 1016.4 |
| 20260507024554 | 59 | 60 | 3.0 | 10.0 | 0.00 | 0.12 | 0.12 | 79 | 1016.4 |
| 20260507024044 | 59 | 44 | 3.0 | 10.0 | 0.00 | 0.12 | 0.12 | 79 | 1016.2 |
| 20260507023534 | 59 | 51 | 2.0 | 10.0 | 0.00 | 0.12 | 0.12 | 79 | 1016.1 |
| 20260507023024 | 59 | 64 | 2.0 | 7.0 | 0.00 | 0.12 | 0.12 | 79 | 1015.8 |
| 20260507022514 | 59 | 45 | 3.0 | 7.0 | 0.00 | 0.12 | 0.12 | 79 | 1015.7 |
| 20260507022012 | 59 | 43 | 3.0 | 8.0 | 0.00 | 0.12 | 0.12 | 80 | 1015.7 |
| 20260507021510 | 59 | 45 | 2.0 | 8.0 | 0.00 | 0.12 | 0.12 | 80 | 1015.6 |
| 20260507021009 | 59 | 36 | 2.0 | 6.0 | 0.00 | 0.12 | 0.12 | 80 | 1015.5 |
| 20260507020510 | 59 | 54 | 3.0 | 8.0 | 0.00 | 0.12 | 0.12 | 80 | 1015.4 |
| 20260507020010 | 59 | 39 | 4.0 | 12.0 | 0.00 | 0.12 | 0.12 | 80 | 1015.3 |
| 20260507015500 | 59 | 44 | 5.0 | 12.0 | 0.00 | 0.12 | 0.12 | 80 | 1015.1 |
| 20260507014950 | 59 | 60 | 5.0 | 10.0 | 0.00 | 0.12 | 0.12 | 81 | 1015.0 |
| 20260507014441 | 59 | 53 | 5.0 | 10.0 | 0.00 | 0.12 | 0.12 | 81 | 1014.9 |
| 20260507013930 | 59 | 45 | 5.0 | 10.0 | 0.00 | 0.12 | 0.12 | 82 | 1014.8 |
| 20260507013420 | 59 | 27 | 5.0 | 9.0 | 0.00 | 0.12 | 0.12 | 82 | 1014.7 |
| 20260507012910 | 59 | 39 | 3.0 | 8.0 | 0.00 | 0.12 | 0.12 | 82 | 1014.6 |
| 20260507012410 | 59 | 45 | 3.0 | 7.0 | 0.00 | 0.12 | 0.12 | 83 | 1014.5 |
| 20260507012353 | 59 | 43 | 2.0 | 4.0 | 0.00 | 0.12 | 0.12 | 83 | 1014.4 |
| 20260507011341 | 60 | 43 | 1.0 | 4.0 | 0.00 | 0.12 | 0.12 | 82 | 1014.3 |
| 20260507010832 | 60 | 52 | 1.0 | 3.0 | 0.00 | 0.12 | 0.12 | 82 | 1014.3 |
| 20260507010322 | 60 | 53 | 2.0 | 7.0 | 0.00 | 0.12 | 0.12 | 82 | 1014.3 |
| 20260507010313 | 60 | 42 | 2.0 | 7.0 | 0.00 | 0.12 | 0.12 | 82 | 1014.2 |
| 20260507005305 | 60 | 30 | 1.0 | 7.0 | 0.00 | 0.12 | 0.12 | 82 | 1014.1 |
| 20260507004755 | 60 | 57 | 0.0 | 3.0 | 0.00 | 0.12 | 0.12 | 83 | 1014.0 |
| 20260507004254 | 60 | 58 | 0.0 | 3.0 | 0.00 | 0.12 | 0.12 | 83 | 1014.0 |
| 20260507003742 | 60 | 58 | 0.0 | 3.0 | 0.00 | 0.12 | 0.12 | 83 | 1014.0 |
| 20260507003233 | 60 | 46 | 0.0 | 3.0 | 0.00 | 0.12 | 0.12 | 82 | 1013.9 |
| 20260507002722 | 60 | 47 | 0.0 | 2.0 | 0.00 | 0.12 | 0.12 | 82 | 1013.9 |
| 20260507002216 | 60 | 48 | 0.0 | 1.0 | 0.00 | 0.12 | 0.12 | 82 | 1013.9 |
| 20260507001716 | 60 | 48 | 0.0 | 3.0 | 0.00 | 0.12 | 0.12 | 82 | 1014.0 |
| 20260507001206 | 60 | 47 | 0.0 | 3.0 | 0.00 | 0.12 | 0.12 | 82 | 1013.8 |
| 20260507000656 | 60 | 47 | 1.0 | 3.0 | 0.00 | 0.12 | 0.12 | 82 | 1013.7 |
| 20260507000147 | 60 | 47 | 1.0 | 3.0 | 0.00 | 0.12 | 0.12 | 82 | 1013.6 |
| 20260506235636 | 60 | 47 | 1.0 | 4.0 | 0.00 | 0.12 | 0.12 | 82 | 1013.7 |
| 20260506235126 | 60 | 47 | 1.0 | 4.0 | 0.00 | 0.12 | 0.12 | 82 | 1013.6 |
| 20260506234616 | 60 | 39 | 1.0 | 6.0 | 0.01 | 0.12 | 0.12 | 82 | 1013.6 |
| 20260506234106 | 60 | 37 | 1.0 | 6.0 | 0.03 | 0.12 | 0.12 | 81 | 1013.5 |
| 20260506233556 | 60 | 35 | 2.0 | 9.0 | 0.08 | 0.12 | 0.12 | 81 | 1013.4 |
| 20260506233047 | 60 | 31 | 2.0 | 9.0 | 0.08 | 0.12 | 0.12 | 81 | 1013.4 |
| 20260506232536 | 60 | 56 | 2.0 | 7.0 | 0.08 | 0.12 | 0.12 | 81 | 1013.4 |
| 20260506232528 | 60 | 82 | 2.0 | 6.0 | 0.08 | 0.12 | 0.12 | 81 | 1013.5 |
| 20260506231516 | 60 | 88 | 2.0 | 5.0 | 0.08 | 0.12 | 0.12 | 80 | 1013.5 |
| 20260506231016 | 60 | 91 | 2.0 | 7.0 | 0.08 | 0.12 | 0.12 | 80 | 1013.4 |
| 20260506230456 | 60 | 46 | 2.0 | 7.0 | 0.08 | 0.12 | 0.12 | 79 | 1013.1 |
| 20260506225946 | 60 | 43 | 2.0 | 7.0 | 0.08 | 0.12 | 0.12 | 78 | 1013.2 |
| 20260506225436 | 60 | 33 | 3.0 | 7.0 | 0.08 | 0.12 | 0.12 | 77 | 1013.4 |
| 20260506224926 | 60 | 7 | 4.0 | 11.0 | 0.08 | 0.12 | 0.12 | 76 | 1013.5 |
| 20260506224410 | 61 | 20 | 5.0 | 11.0 | 0.06 | 0.10 | 0.11 | 74 | 1013.2 |
| 20260506223900 | 61 | 16 | 4.0 | 12.0 | 0.00 | 0.04 | 0.05 | 71 | 1013.6 |
| 20260506223855 | 61 | 8 | 5.0 | 12.0 | 0.00 | 0.04 | 0.04 | 70 | 1013.6 |
| 20260506222846 | 61 | 50 | 4.0 | 11.0 | 0.00 | 0.04 | 0.04 | 70 | 1013.1 |
| 20260506222332 | 61 | 20 | 5.0 | 11.0 | 0.00 | 0.04 | 0.04 | 70 | 1013.2 |
| 20260506221822 | 61 | 26 | 7.0 | 13.0 | 0.00 | 0.04 | 0.04 | 69 | 1013.1 |
| 20260506221313 | 61 | 19 | 5.0 | 13.0 | 0.00 | 0.04 | 0.04 | 70 | 1013.2 |
| 20260506220802 | 61 | 22 | 5.0 | 10.0 | 0.00 | 0.04 | 0.04 | 71 | 1013.1 |
| 20260506220255 | 61 | 334 | 6.0 | 12.0 | 0.00 | 0.04 | 0.04 | 71 | 1013.1 |
| 20260506215749 | 61 | 5 | 6.0 | 12.0 | 0.00 | 0.04 | 0.04 | 69 | 1013.1 |
| 20260506215240 | 62 | 314 | 6.0 | 12.0 | 0.00 | 0.04 | 0.04 | 70 | 1013.3 |
| 20260506214728 | 61 | 15 | 5.0 | 12.0 | 0.00 | 0.04 | 0.04 | 69 | 1013.1 |
| 20260506214218 | 61 | 330 | 5.0 | 12.0 | 0.00 | 0.04 | 0.04 | 70 | 1013.1 |
| 20260506213712 | 61 | 14 | 5.0 | 12.0 | 0.00 | 0.04 | 0.04 | 69 | 1013.2 |
| 20260506213201 | 61 | 338 | 4.0 | 12.0 | 0.00 | 0.04 | 0.04 | 70 | 1013.2 |
| 20260506212654 | 61 | 25 | 4.0 | 12.0 | 0.00 | 0.04 | 0.04 | 71 | 1013.1 |
| 20260506212141 | 61 | 348 | 6.0 | 12.0 | 0.00 | 0.04 | 0.04 | 70 | 1012.9 |
| 20260506211632 | 61 | 14 | 6.0 | 12.0 | 0.00 | 0.04 | 0.04 | 70 | 1013.1 |
| 20260506211123 | 61 | 10 | 6.0 | 12.0 | 0.00 | 0.04 | 0.04 | 70 | 1013.3 |
| 20260506210619 | 60 | 5 | 5.0 | 11.0 | 0.00 | 0.04 | 0.04 | 71 | 1013.2 |
| 20260506210215 | 60 | 21 | 5.0 | 10.0 | 0.00 | 0.04 | 0.04 | 71 | 1013.2 |
| 20260506205714 | 60 | 10 | 4.0 | 9.0 | 0.00 | 0.04 | 0.04 | 71 | 1013.4 |
| 20260506204604 | 60 | 20 | 3.0 | 9.0 | 0.00 | 0.04 | 0.04 | 70 | 1013.5 |
| 20260506204103 | 60 | 26 | 4.0 | 9.0 | 0.00 | 0.04 | 0.04 | 71 | 1013.6 |
| 20260506203555 | 60 | 32 | 5.0 | 9.0 | 0.00 | 0.04 | 0.04 | 71 | 1013.6 |
| 20260506203050 | 60 | 356 | 5.0 | 9.0 | 0.00 | 0.04 | 0.04 | 71 | 1013.5 |
| 20260506202540 | 60 | 18 | 5.0 | 11.0 | 0.00 | 0.04 | 0.04 | 71 | 1013.6 |
| 20260506202036 | 60 | 267 | 6.0 | 11.0 | 0.00 | 0.04 | 0.04 | 69 | 1013.8 |
| 20260506201532 | 62 | 359 | 4.0 | 10.0 | 0.00 | 0.04 | 0.04 | 69 | 1013.9 |
| 20260506201527 | 61 | 334 | 5.0 | 11.0 | 0.00 | 0.04 | 0.04 | 69 | 1013.8 |
| 20260506200520 | 62 | 323 | 4.0 | 11.0 | 0.00 | 0.04 | 0.04 | 72 | 1013.9 |
| 20260506200013 | 61 | 4 | 4.0 | 11.0 | 0.00 | 0.04 | 0.04 | 71 | 1014.0 |
| 20260506195502 | 60 | 12 | 4.0 | 11.0 | 0.00 | 0.04 | 0.04 | 71 | 1014.2 |
| 20260506194952 | 60 | 43 | 4.0 | 10.0 | 0.00 | 0.04 | 0.04 | 72 | 1014.2 |
| 20260506194443 | 60 | 354 | 6.0 | 12.0 | 0.00 | 0.04 | 0.04 | 74 | 1014.1 |
| 20260506193934 | 59 | 336 | 6.0 | 12.0 | 0.00 | 0.04 | 0.04 | 74 | 1014.1 |
| 20260506193923 | 58 | 28 | 4.0 | 11.0 | 0.00 | 0.04 | 0.04 | 75 | 1014.3 |
| 20260506193528 | 59 | 267 | 5.0 | 11.0 | 0.00 | 0.04 | 0.04 | 73 | 1014.2 |
| 20260506192411 | 58 | 1 | 4.0 | 11.0 | 0.00 | 0.04 | 0.04 | 76 | 1014.4 |
| 20260506191904 | 58 | 325 | 4.0 | 9.0 | 0.00 | 0.04 | 0.04 | 76 | 1014.5 |
| 20260506191354 | 57 | 6 | 3.0 | 8.0 | 0.00 | 0.04 | 0.04 | 77 | 1014.5 |
| 20260506190843 | 57 | 2 | 2.0 | 8.0 | 0.00 | 0.04 | 0.04 | 77 | 1014.7 |
| 20260506190333 | 57 | 352 | 3.0 | 8.0 | 0.00 | 0.04 | 0.04 | 78 | 1014.7 |
| 20260506185823 | 57 | 334 | 3.0 | 10.0 | 0.00 | 0.04 | 0.04 | 77 | 1014.7 |
| 20260506185806 | 57 | 267 | 2.0 | 10.0 | 0.00 | 0.04 | 0.04 | 77 | 1014.7 |
| 20260506184805 | 57 | 267 | 2.0 | 7.0 | 0.00 | 0.04 | 0.04 | 77 | 1014.7 |
| 20260506184257 | 56 | 267 | 3.0 | 7.0 | 0.00 | 0.04 | 0.04 | 77 | 1014.7 |
| 20260506183745 | 56 | 24 | 3.0 | 7.0 | 0.00 | 0.04 | 0.04 | 77 | 1014.7 |
| 20260506183235 | 56 | 267 | 4.0 | 11.0 | 0.00 | 0.04 | 0.04 | 78 | 1014.7 |
| 20260506182727 | 56 | 267 | 4.0 | 11.0 | 0.00 | 0.04 | 0.04 | 77 | 1014.4 |
| 20260506182215 | 56 | 267 | 4.0 | 12.0 | 0.00 | 0.04 | 0.04 | 78 | 1014.0 |
| 20260506181705 | 56 | 30 | 6.0 | 17.0 | 0.00 | 0.04 | 0.04 | 78 | 1013.8 |
| 20260506181147 | 56 | 267 | 7.0 | 17.0 | 0.00 | 0.04 | 0.04 | 78 | 1013.5 |
| 20260506180638 | 56 | 267 | 9.0 | 17.0 | 0.00 | 0.04 | 0.04 | 79 | 1013.0 |
| 20260506180127 | 56 | 267 | 8.0 | 17.0 | 0.00 | 0.04 | 0.04 | 79 | 1013.0 |
| 20260506175617 | 56 | 267 | 7.0 | 15.0 | 0.00 | 0.04 | 0.04 | 80 | 1013.1 |
| 20260506175107 | 56 | 267 | 7.0 | 15.0 | 0.00 | 0.04 | 0.04 | 81 | 1013.4 |
| 20260506174557 | 55 | 357 | 8.0 | 15.0 | 0.00 | 0.04 | 0.04 | 82 | 1013.1 |
| 20260506174047 | 54 | 26 | 8.0 | 15.0 | 0.00 | 0.04 | 0.04 | 82 | 1013.4 |
| 20260506173537 | 54 | 33 | 6.0 | 12.0 | 0.00 | 0.04 | 0.04 | 82 | 1013.8 |
| 20260506173027 | 54 | 11 | 6.0 | 12.0 | 0.00 | 0.04 | 0.04 | 82 | 1014.1 |
| 20260506172517 | 54 | 19 | 7.0 | 14.0 | 0.00 | 0.04 | 0.04 | 83 | 1014.0 |
| 20260506172007 | 54 | 57 | 6.0 | 14.0 | 0.00 | 0.04 | 0.04 | 83 | 1014.0 |
| 20260506171449 | 54 | 23 | 6.0 | 12.0 | 0.00 | 0.04 | 0.04 | 83 | 1013.9 |
| 20260506170939 | 54 | 20 | 6.0 | 13.0 | 0.00 | 0.04 | 0.04 | 83 | 1013.9 |
| 20260506170429 | 54 | 30 | 5.0 | 13.0 | 0.00 | 0.04 | 0.04 | 83 | 1014.1 |
| 20260506170414 | 54 | 22 | 5.0 | 12.0 | 0.00 | 0.04 | 0.04 | 83 | 1014.1 |
| 20260506165403 | 54 | 76 | 6.0 | 15.0 | 0.00 | 0.04 | 0.04 | 83 | 1014.1 |
| 20260506164853 | 54 | 58 | 5.0 | 15.0 | 0.00 | 0.04 | 0.04 | 83 | 1014.1 |
| 20260506164342 | 54 | 31 | 6.0 | 14.0 | 0.00 | 0.04 | 0.04 | 83 | 1014.1 |
| 20260506163833 | 54 | 62 | 8.0 | 14.0 | 0.00 | 0.04 | 0.04 | 83 | 1013.7 |
| 20260506163323 | 54 | 350 | 6.0 | 12.0 | 0.00 | 0.04 | 0.04 | 83 | 1013.9 |
| 20260506162813 | 54 | 49 | 6.0 | 14.0 | 0.00 | 0.04 | 0.04 | 83 | 1014.0 |
| 20260506162306 | 54 | 22 | 6.0 | 14.0 | 0.00 | 0.04 | 0.04 | 83 | 1014.0 |
| 20260506161804 | 54 | 26 | 6.0 | 13.0 | 0.00 | 0.04 | 0.04 | 83 | 1014.1 |
| 20260506161253 | 54 | 37 | 6.0 | 13.0 | 0.00 | 0.04 | 0.04 | 83 | 1014.0 |
| 20260506160737 | 55 | 68 | 6.0 | 12.0 | 0.03 | 0.04 | 0.04 | 84 | 1014.0 |
| 20260506160222 | 54 | 9 | 5.0 | 11.0 | 0.04 | 0.04 | 0.04 | 83 | 1014.2 |
| 20260506155713 | 54 | 20 | 5.0 | 9.0 | 0.04 | 0.04 | 0.04 | 83 | 1014.2 |
| 20260506155203 | 54 | 347 | 4.0 | 10.0 | 0.04 | 0.04 | 0.04 | 83 | 1014.6 |
| 20260506154653 | 55 | 10 | 5.0 | 14.0 | 0.04 | 0.04 | 0.04 | 84 | 1014.0 |
| 20260506154143 | 54 | 31 | 6.0 | 14.0 | 0.04 | 0.04 | 0.04 | 83 | 1013.5 |
| 20260506153633 | 53 | 52 | 6.0 | 12.0 | 0.04 | 0.04 | 0.04 | 82 | 1013.4 |
| 20260506153123 | 53 | 91 | 7.0 | 13.0 | 0.04 | 0.04 | 0.04 | 82 | 1013.3 |
| 20260506152613 | 53 | 72 | 7.0 | 13.0 | 0.04 | 0.04 | 0.04 | 81 | 1013.2 |
| 20260506152102 | 53 | 57 | 4.0 | 12.0 | 0.04 | 0.04 | 0.04 | 81 | 1014.1 |
| 20260506151602 | 53 | 57 | 4.0 | 12.0 | 0.04 | 0.04 | 0.04 | 80 | 1015.2 |
| 20260506151224 | 54 | 24 | 3.0 | 10.0 | 0.00 | 0.00 | 0.00 | 78 | 1015.7 |
| 20260506151107 | 54 | 79 | 4.0 | 11.0 | 0.00 | 0.00 | 0.01 | 79 | 1014.1 |
| 20260506151102 | 54 | 46 | 5.0 | 12.0 | 0.03 | 0.03 | 0.03 | 80 | 1014.8 |